Location: Tel Aviv
(32.0670°N, 34.7670°E)
Time: 05:40:23
(UTC+03:00)

Vanguard 1 Rocket - Pass Details

Date: 27 July 2025
Orbit: 655 x 4212 km, 34.3° (Epoch: 11 May)

Event Time Altitude Azimuth Distance (km) Brightness Sun altitude
Rises 21:00:45 0° 271° (W) 8,134 13.2 -15.5°
Reaches altitude 10° 21:06:57 10° 272° (W) 6,756 12.7 -16.6°
Maximum altitude 21:27:05 82° 1° (N) 2,310 9.4 -19.9°
Enters shadow 21:35:30 18° 88° (E) 3,217 9.8 -21.3°
